UA1ZBE-13 Weather Reports


time (UTC)temp
C
wind
direction
speed
KPH
gust
KPH
rain 1hr
cm
rain 24hr
cm
rain mn
cm
humidity
%
barometer
mb
20260503200515 2 0.0 0.0 0.00 0.00 0.00 981.5
20260503195514 2 0.0 0.0 0.00 0.00 0.00 981.3
20260503194514 2 0.0 0.0 0.00 0.00 0.00 981.4
20260503193514 2 0.0 0.0 0.00 0.00 0.00 981.4
20260503192514 2 0.0 0.0 0.00 0.00 0.00 981.4
20260503191513 3 0.0 0.0 0.00 0.00 0.00 981.3
20260503190513 3 0.0 0.0 0.00 0.00 0.00 981.3
20260503185513 3 0.0 0.0 0.00 0.00 0.00 981.2
20260503184513 3 0.0 0.0 0.00 0.00 0.00 981.2
20260503183512 3 0.0 0.0 0.00 0.00 0.00 981.1
20260503182512 3 0.0 0.0 0.00 0.00 0.00 981.2
20260503181512 3 0.0 0.0 0.00 0.00 0.00 981.1
20260503180512 4 0.0 0.0 0.00 0.00 0.00 981.1
20260503175512 5 0.0 0.0 0.00 0.00 0.00 981.1
20260503174511 5 0.0 0.0 0.00 0.00 0.00 981.1
20260503173511 6 0.0 0.0 0.00 0.00 0.00 981.1
20260503172511 6 0.0 0.0 0.00 0.00 0.00 981.2
20260503171511 6 0.0 0.0 0.00 0.00 0.00 981.1
20260503170510 7 0.0 0.0 0.00 0.00 0.00 981.2
20260503150508 16 0.0 0.0 0.00 0.00 0.00 981.2
20260503130505 8 0.0 0.0 0.00 0.00 0.00 980.7
20260503110502 7 0.0 0.0 0.00 0.00 0.00 980.1
20260503090500 5 0.0 0.0 0.00 0.00 0.00 979.2
20260503081459 4 0.0 0.0 0.00 0.00 0.00 978.9
20260503080458 4 0.0 0.0 0.00 0.00 0.00 978.9
20260503072458 3 0.0 0.0 0.00 0.00 0.00 978.8
20260503071457 3 0.0 0.0 0.00 0.00 0.00 978.7
20260503070457 3 0.0 0.0 0.00 0.00 0.00 978.7
20260503054455 3 0.0 0.0 0.00 0.00 0.00 978.5
20260503053455 3 0.0 0.0 0.00 0.00 0.00 978.7
20260503052455 2 0.0 0.0 0.00 0.00 0.00 978.5
20260503051455 2 0.0 0.0 0.00 0.00 0.00 978.5
20260503050454 2 0.0 0.0 0.00 0.00 0.00 978.7
20260503045454 2 0.0 0.0 0.00 0.00 0.00 978.6
20260503044454 2 0.0 0.0 0.00 0.00 0.00 978.6
20260503043454 2 0.0 0.0 0.00 0.00 0.00 978.5
20260503042454 1 0.0 0.0 0.00 0.00 0.00 978.5
20260503041453 1 0.0 0.0 0.00 0.00 0.00 978.5
20260503040453 1 0.0 0.0 0.00 0.00 0.00 978.4
20260503035453 1 0.0 0.0 0.00 0.00 0.00 978.4
20260503034453 1 0.0 0.0 0.00 0.00 0.00 978.4
20260503033452 1 0.0 0.0 0.00 0.00 0.00 978.3
20260503032452 1 0.0 0.0 0.00 0.00 0.00 978.3
20260503031452 1 0.0 0.0 0.00 0.00 0.00 978.2
20260503030452 1 0.0 0.0 0.00 0.00 0.00 978.2
20260503025451 0 0.0 0.0 0.00 0.00 0.00 978.1
20260503024451 0 0.0 0.0 0.00 0.00 0.00 978.0
20260503023451 0 0.0 0.0 0.00 0.00 0.00 978.0
20260503022451 0 0.0 0.0 0.00 0.00 0.00 978.0
20260503021451 0 0.0 0.0 0.00 0.00 0.00 977.9
20260503020450 0 0.0 0.0 0.00 0.00 0.00 977.8
20260503015450 0 0.0 0.0 0.00 0.00 0.00 977.7
20260503014450 0 0.0 0.0 0.00 0.00 0.00 977.8
20260503013450 0 0.0 0.0 0.00 0.00 0.00 977.6
20260503012450 0 0.0 0.0 0.00 0.00 0.00 977.5
20260503011449 0 0.0 0.0 0.00 0.00 0.00 977.5
20260503010449 0 0.0 0.0 0.00 0.00 0.00 977.6
20260503005449 0 0.0 0.0 0.00 0.00 0.00 977.7
20260503004449 0 0.0 0.0 0.00 0.00 0.00 977.5
20260503003449 1 0.0 0.0 0.00 0.00 0.00 977.5
20260503002448 1 0.0 0.0 0.00 0.00 0.00 977.6
20260503001448 1 0.0 0.0 0.00 0.00 0.00 977.5
20260503000448 1 0.0 0.0 0.00 0.00 0.00 977.5
20260502235448 1 0.0 0.0 0.00 0.00 0.00 977.5
20260502234448 1 0.0 0.0 0.00 0.00 0.00 977.5
20260502233447 1 0.0 0.0 0.00 0.00 0.00 977.4
20260502232447 1 0.0 0.0 0.00 0.00 0.00 977.3
20260502231447 1 0.0 0.0 0.00 0.00 0.00 977.2
20260502230447 2 0.0 0.0 0.00 0.00 0.00 977.2
20260502225446 2 0.0 0.0 0.00 0.00 0.00 977.2
20260502224447 2 0.0 0.0 0.00 0.00 0.00 977.0
20260502223446 2 0.0 0.0 0.00 0.00 0.00 977.2
20260502222446 2 0.0 0.0 0.00 0.00 0.00 977.1
20260502221446 2 0.0 0.0 0.00 0.00 0.00 977.0
20260502220445 2 0.0 0.0 0.00 0.00 0.00 977.0
20260502215445 2 0.0 0.0 0.00 0.00 0.00 977.0
20260502214445 3 0.0 0.0 0.00 0.00 0.00 976.9
20260502213445 3 0.0 0.0 0.00 0.00 0.00 976.8
20260502212444 3 0.0 0.0 0.00 0.00 0.00 976.6
20260502211444 3 0.0 0.0 0.00 0.00 0.00 976.6
20260502210444 3 0.0 0.0 0.00 0.00 0.00 976.4
20260502205444 3 0.0 0.0 0.00 0.00 0.00 976.5
20260502204443 4 0.0 0.0 0.00 0.00 0.00 976.5
20260502203443 4 0.0 0.0 0.00 0.00 0.00 976.4
20260502202443 4 0.0 0.0 0.00 0.00 0.00 976.4
20260502201443 4 0.0 0.0 0.00 0.00 0.00 976.2